Regional Weather Roundup
Issued by NWS

Home | Current Version | Previous Version | Text Only | Print | Product List | Glossary On
Versions: 1 2 3 4 5 6 7 8 9 10 11 12 13 14 15 16 17 18 19 20 21 22 23 24 25 26 27 28 29 30 31 32 33 34 35 36 37 38 39 40 41 42 43 44 45 46 47 48 49 50
000
ASUS43 KLSX 242207
RWRMO

WEATHER SUMMARY FOR MISSOURI
NATIONAL WEATHER SERVICE SPRINGFIELD MO
400 PM CST FRI NOV 24 2017

NOTE: "FAIR" INDICATES FEW OR NO CLOUDS BELOW 12,000 FEET WITH NO
       SIGNIFICANT WEATHER AND/OR OBSTRUCTIONS TO VISIBILITY.
       CURRENT SKY AND/OR WEATHER CONDITIONS ARE NOT AVAILABLE FOR
       CHILLICOTHE AND FARMINGTON.

MOZ001>031-035>038-043-044-053-054-242300-
...NORTHERN AND WESTERN MISSOURI...

CITY           SKY/WX    TMP DP  RH WIND       PRES   REMARKS
KANSAS CTY INT CLOUDY    69  42  37 SW7       29.59R
KANSAS C DTWN  CLOUDY    73  40  30 SW10      29.58R
LEE`S SUMMIT   CLOUDY    71  39  31 W13G21    29.61R
ST JOSEPH      CLOUDY    71  41  33 NW9       29.58R
CHILLICOTHE      N/A     73  40  30 W9G21     29.57R
KIRKSVILLE     CLEAR     71  40  32 W10G20    29.54R

$$
MOZ066>068-077>081-088>096-101>105-242300-
...SOUTHWEST MISSOURI...

CITY           SKY/WX    TMP DP  RH WIND       PRES   REMARKS
SPRINGFIELD    CLEAR     71  36  27 SW20G26   29.69F
JOPLIN         CLEAR     71  37  28 SW16      29.69S
BRANSON        CLOUDY    72  32  23 SW10G20   29.76R

$$
MOZ032>034-039>042-045>050-055>058-069>072-242300-
...CENTRAL MISSOURI...

CITY           SKY/WX    TMP DP  RH WIND       PRES   REMARKS
COLUMBIA       CLEAR     70  37  29 SW16G28   29.59S
JEFFERSON CITY CLEAR     74  35  24 S13G20    29.59S
ROLLA          CLEAR     70  36  28 S15       29.65F
SEDALIA        LGT RAIN  72  40  31 SW13G23   29.61R
WHITEMAN AFB   MOCLDY    71  38  30 SW15      29.55R
WARRENSBURG    CLOUDY    72  37  28 SW13G18   29.59R
OSAGE BEACH    PTCLDY    72  37  28 S15       29.64F

$$
MOZ051-052-059>065-242300-
...EAST CENTRAL MISSOURI...

CITY           SKY/WX    TMP DP  RH WIND       PRES   REMARKS
ST LOUIS INTL  PTCLDY    71  35  26 S17G25    29.63S
SPIRIT OF STL  PTCLDY    72  35  25 S9G21     29.61F
ST CHARLES     CLEAR     72  34  24 S15       29.60S

$$
MOZ072>076-082>087-097>100-106>115-242300-
...SOUTH CENTRAL AND SOUTHEAST MISSOURI...

CITY           SKY/WX    TMP DP  RH WIND       PRES   REMARKS
CAPE GIRARDEAU CLEAR     59  37  44 S12G21    29.78S
FARMINGTON     CLEAR     65  36  34 S12       29.71S
POPLAR BLUFF   CLEAR     62  35  36 SW18G24   29.78S
WEST PLAINS    CLEAR     68  33  27 S7        29.76R

$$


USA.gov is the U.S. government's official web portal to all federal, state and local government web resources and services.